Location: Dal�� Lhota
(48.7500°N, 14.0167°E)
Time: 22:28:17
(UTC+00:00)

Vanguard 3 - Pass Details

Date: 07 August 2021
Orbit: 510 x 3260 km, 33.3° (Epoch: 19 September)

Event Time Altitude Azimuth Distance (km) Brightness Sun altitude
Rises 12:55:14 0° 181° (S) 4,260 11.3 51.0°
Reaches altitude 10° 13:00:02 10° 156° (SSE) 3,850 10.9 50.5°
Maximum altitude 13:04:19 13° 131° (SE) 4,056 10.8 50.0°
Drops below altitude 10° 13:09:28 10° 108° (ESE) 4,835 11.0 49.4°
Sets 13:17:20 0° 87° (E) 6,495 11.4 48.4°
